Back to catalog

THOR ABLESTAR DEB

AliveLEO
NORAD 402·DEBRIS·🇺🇸 United States

Launched Jun 29, 1961 from Cape Canaveral Space Force Station

Loading…

Next Passes (next 24 hours)

TLE

FreshSource: Space-Track

Epoch: Sep 7, 2026, 07:05 UTC

1 00402U 61015EB  26250.29551726  .00006061  00000-0  91699-3 0  9991
2 00402  66.6520   0.4407 0031781 250.4412 109.3276 14.74558451353324

Track THOR ABLESTAR DEB in real time with AllMySat

Download on the App Store